[[[{"header":{"parameterUnit":"kt","parameterCategory":2,"dx":1,"dy":1,"la1":30.253999710083008,"la2":30.299108505249023,"lo1":-89.0895004272461,"lo2":-89.04439544677734,"nx":28,"ny":28,"refTime":"2022-09-25T21:00:00:Z","depth":"0","parameterNumber":2,"parameterNumberName":"U-component_of_CURRENTS"},"data":[-0.0813,-0.0708,-0.0701,-0.0609,-0.0554,-0.0466,-0.0433,-0.043,-0.047,-0.0609,-0.0748,-0.087,-0.1115,-0.1099,-0.0977,-0.0833,-0.0738,-0.0706,-0.0622,-0.0703,-0.0703,-0.0702,-0.0748,-0.0707,-0.0707,-0.0614,-0.0613,-0.0613,-0.0896,-0.0844,-0.0768,-0.0655,-0.0607,-0.0595,-0.0531,-0.0499,-0.0484,-0.0558,-0.0596,-0.0734,-0.0768,-0.0792,-0.0798,-0.072,-0.0678,-0.0641,-0.0695,-0.0648,-0.0679,-0.0725,-0.0678,-0.0678,-0.0678,-0.0678,-0.0678,-0.0678,-0.103,-0.0952,-0.0854,-0.077,-0.0703,-0.0658,-0.0597,-0.0571,-0.0545,-0.0553,-0.0568,-0.0641,-0.0698,-0.0698,-0.0661,-0.0634,-0.06,-0.0619,-0.0619,-0.0625,-0.0617,-0.0629,-0.0566,-0.0565,-0.0565,-0.0564,-0.0564,0,-0.1094,-0.1059,-0.0981,-0.0872,-0.0788,-0.0737,-0.0657,-0.063,-0.061,-0.0597,-0.0604,-0.0634,-0.0636,-0.0673,-0.0638,-0.0614,-0.0599,-0.0591,-0.0601,-0.0727,-0.0727,-0.0705,-0.0759,-0.0669,-0.0669,-0.0669,-0.0669,-0.0669,-0.1161,-0.1114,-0.1008,-0.0953,-0.0907,-0.0822,-0.0759,-0.0736,-0.0695,-0.0693,-0.0668,-0.0666,-0.0671,-0.0631,-0.0644,-0.0613,-0.0625,-0.0597,-0.0664,-0.0659,-0.0683,-0.0701,-0.0668,-0.067,-0.067,-0.067,-0.067,0,-0.1189,-0.1166,-0.1075,-0.0986,-0.096,-0.0882,-0.0825,-0.0764,-0.0756,-0.0723,-0.0726,-0.0739,-0.0714,-0.0706,-0.0704,-0.0693,-0.0669,-0.067,-0.0696,-0.0717,-0.0701,-0.0711,-0.0621,-0.0574,-0.0586,-0.0584,-0.0584,0,-0.1239,-0.1188,-0.1129,-0.1079,-0.0989,-0.0949,-0.0872,-0.0829,-0.0801,-0.0755,-0.0784,-0.0776,-0.0797,-0.0776,-0.0789,-0.075,-0.0753,-0.0769,-0.0785,-0.0835,-0.0838,-0.0844,-0.0857,-0.0803,-0.0804,-0.0805,-0.0806,0,-0.1287,-0.1215,-0.1168,-0.1132,-0.1047,-0.0997,-0.096,-0.0885,-0.0857,-0.0834,-0.0826,-0.0797,-0.0815,-0.0809,-0.0828,-0.0861,-0.0794,-0.0852,-0.0824,-0.0822,-0.0846,-0.0849,-0.0786,-0.0807,-0.0807,-0.0808,-0.0808,0,-0.1319,-0.1278,-0.1216,-0.1125,-0.1106,-0.106,-0.0975,-0.0945,-0.0881,-0.0878,-0.0858,-0.0878,-0.0855,-0.0924,-0.0878,-0.0917,-0.0928,-0.0941,-0.0939,-0.0925,-0.0988,-0.0923,-0.086,-0.0876,-0.0923,-0.0925,-0.0926,0,-0.1359,-0.1295,-0.1278,-0.1206,-0.1157,-0.1135,-0.1081,-0.103,-0.1017,-0.0976,-0.0978,-0.0962,-0.0983,-0.1005,-0.0997,-0.1023,-0.0993,-0.1046,-0.1021,-0.1018,-0.1007,-0.0947,-0.099,-0.0882,-0.0943,-0.0941,-0.094,0,-0.1372,-0.131,-0.1301,-0.1258,-0.1229,-0.1214,-0.1166,-0.1125,-0.108,-0.1064,-0.1034,-0.1011,-0.1028,-0.1025,-0.1061,-0.1058,-0.102,-0.1103,-0.1104,-0.1043,-0.0981,-0.0971,-0.0958,-0.1082,-0.1081,-0.1079,-0.0953,0,-0.1363,-0.1326,-0.1316,-0.1269,-0.1262,-0.125,-0.1233,-0.1203,-0.1207,-0.1193,-0.1149,-0.1162,-0.114,-0.115,-0.1169,-0.1132,-0.1131,-0.118,-0.119,-0.1163,-0.1112,-0.1101,-0.1236,-0.1237,-0.1237,-0.1238,0,0,-0.1384,-0.1352,-0.1342,-0.1315,-0.1307,-0.1333,-0.1316,-0.131,-0.1305,-0.1277,-0.1298,-0.1257,-0.1256,-0.1215,-0.1208,-0.1219,-0.1208,-0.1204,-0.1184,-0.1178,-0.1173,-0.1122,-0.1111,-0.1239,-0.1239,-0.1239,-0.1239,0,-0.138,-0.1361,-0.1335,-0.1325,-0.1334,-0.1346,-0.1348,-0.1362,-0.1358,-0.133,-0.1334,-0.1314,-0.1286,-0.1267,-0.1262,-0.1231,-0.1224,-0.1239,-0.119,-0.1189,-0.1183,-0.1177,-0.1126,-0.1116,-0.124,-0.124,-0.124,0,-0.1378,-0.1371,-0.1353,-0.1354,-0.1373,-0.136,-0.1403,-0.1416,-0.1398,-0.1413,-0.1367,-0.1365,-0.1356,-0.1316,-0.1298,-0.1307,-0.124,-0.1272,-0.127,-0.1235,-0.1234,-0.1227,-0.122,-0.1301,-0.1301,-0.1301,0,0,-0.1376,-0.1345,-0.1358,-0.1356,-0.1358,-0.1396,-0.1412,-0.1422,-0.1426,-0.1427,-0.1404,-0.1384,-0.1366,-0.1347,-0.132,-0.1293,-0.1276,-0.1278,-0.1276,-0.1273,-0.1238,-0.1236,-0.1229,-0.1301,-0.1301,-0.1301,0,0,-0.1387,-0.1367,-0.1369,-0.1357,-0.1378,-0.1418,-0.1426,-0.1449,-0.1445,-0.1435,-0.1424,-0.1414,-0.137,-0.1366,-0.1373,-0.1321,-0.1335,-0.1333,-0.1316,-0.1313,-0.131,-0.127,-0.1364,0,0,0,0,0,-0.1379,-0.1365,-0.1367,-0.1369,-0.1392,-0.1416,-0.1424,-0.1445,-0.1461,-0.1461,-0.1443,-0.1434,-0.1362,-0.1368,-0.1361,-0.134,-0.1306,-0.1305,-0.1304,-0.1276,-0.1273,-0.1269,0,0,0,0,0,0,-0.138,-0.138,-0.1369,-0.1404,-0.141,-0.1417,-0.1431,-0.1438,-0.146,-0.1461,-0.1441,-0.1434,-0.1414,-0.137,-0.1365,-0.1344,-0.1366,-0.1306,-0.1305,-0.1304,-0.1275,-0.1272,-0.1269,0,0,0,0,0,-0.1381,-0.1381,-0.1401,-0.1406,-0.1411,-0.1442,-0.143,-0.1435,-0.1454,-0.1432,-0.1428,-0.1467,-0.1416,-0.1408,-0.1367,-0.1347,-0.137,-0.1368,-0.1305,-0.1304,-0.1304,-0.1273,0,0,0,0,0,0,-0.1382,-0.1397,-0.1404,-0.1408,-0.1395,-0.1442,-0.1444,-0.1433,-0.1423,-0.1422,-0.1454,-0.1454,-0.1417,-0.141,-0.1404,-0.1348,-0.1373,-0.1371,-0.137,-0.1305,-0.1304,-0.1304,0,0,0,0,0,0,-0.1398,-0.14,-0.1406,-0.1391,-0.1394,-0.1441,-0.1444,-0.1423,-0.1419,-0.1444,-0.1446,-0.1454,-0.1393,-0.1412,-0.1408,-0.1379,-0.1376,-0.1374,-0.1372,-0.1371,-0.1304,-0.1304,0,0,0,0,0,0,-0.14,-0.1402,-0.139,-0.1392,-0.1395,-0.1449,-0.1421,-0.1424,-0.147,-0.1442,-0.1467,-0.1466,-0.1393,-0.139,-0.141,-0.1383,-0.138,-0.1376,-0.1374,-0.1373,-0.1372,0,0,0,0,0,0,0,-0.1402,-0.1369,-0.1375,-0.1394,-0.1396,-0.1451,-0.1453,-0.1454,-0.1469,-0.1468,-0.1467,-0.1467,-0.1388,-0.1385,-0.1383,-0.1387,0,0,-0.1376,-0.1375,0,0,0,0,0,0,0,0,-0.137,-0.137,-0.1376,-0.1376,-0.1377,-0.1451,-0.1453,-0.1454,-0.1469,-0.1468,-0.1468,-0.1467,-0.1387,-0.1385,-0.1383,0,0,0,0,0,0,0,0,0,0,0,0,0,0,0,-0.1376,-0.1376,0,-0.1452,-0.1452,-0.1453,-0.1469,-0.1468,-0.1468,-0.1467,-0.1386,-0.1385,-0.1383,0,0,0,0,0,0,0,0,0,0,0,0,0,0,0,0,0,0,0,0,0,0,0,0,0,0,0,0,0,0,0,0,0,0,0,0,0,0,0,0,0,0,0,0,0,0,0,0,0,0,0,0,0,0,0,0,0,0,0,0,0,0,0,0,0,0,0,0,0]}],[{"header":{"parameterUnit":"kt","parameterCategory":2,"dx":1,"dy":1,"la1":30.253999710083008,"la2":30.299108505249023,"lo1":-89.0895004272461,"lo2":-89.04439544677734,"nx":28,"ny":28,"refTime":"2022-09-25T21:00:00:Z","depth":"0","parameterNumber":3,"parameterNumberName":"V-component_of_CURRENTS"},"data":[-0.105,-0.098,-0.0951,-0.1005,-0.106,-0.114,-0.1152,-0.1217,-0.1326,-0.1598,-0.1813,-0.1975,-0.1979,-0.1658,-0.1565,-0.1542,-0.1558,-0.1434,-0.1509,-0.1588,-0.1591,-0.1594,-0.1635,-0.1565,-0.1564,-0.148,-0.1479,-0.1478,-0.1139,-0.1063,-0.1028,-0.1032,-0.1122,-0.116,-0.1192,-0.1221,-0.1292,-0.1467,-0.1578,-0.1722,-0.1709,-0.1663,-0.1611,-0.1556,-0.1533,-0.1528,-0.1458,-0.1531,-0.1574,-0.1614,-0.1537,-0.1537,-0.1537,-0.1537,-0.1537,-0.1537,-0.1225,-0.1155,-0.1135,-0.112,-0.1157,-0.1213,-0.1202,-0.1278,-0.1316,-0.1397,-0.1436,-0.1558,-0.1547,-0.1553,-0.1528,-0.1507,-0.1502,-0.1548,-0.1542,-0.1454,-0.1542,-0.157,-0.149,-0.149,-0.149,-0.149,-0.149,0,-0.1298,-0.13,-0.1269,-0.1256,-0.1245,-0.1275,-0.1279,-0.126,-0.1317,-0.1371,-0.1421,-0.1453,-0.145,-0.151,-0.1492,-0.1511,-0.1558,-0.1545,-0.1571,-0.1651,-0.1544,-0.1624,-0.1696,-0.1598,-0.1599,-0.1599,-0.1599,-0.16,-0.1419,-0.1383,-0.1387,-0.1368,-0.1366,-0.1336,-0.1332,-0.1358,-0.1382,-0.1402,-0.1413,-0.1413,-0.1468,-0.1482,-0.1547,-0.1564,-0.1582,-0.1559,-0.1644,-0.1653,-0.1665,-0.1589,-0.1654,-0.1606,-0.1605,-0.1605,-0.1604,0,-0.1481,-0.1496,-0.1463,-0.1482,-0.1467,-0.1418,-0.1432,-0.1431,-0.1431,-0.1442,-0.1451,-0.1514,-0.1532,-0.1585,-0.1617,-0.1666,-0.1673,-0.1672,-0.166,-0.167,-0.169,-0.1695,-0.1499,-0.1561,-0.1608,-0.1607,-0.1606,0,-0.1613,-0.1578,-0.1616,-0.1586,-0.1524,-0.1555,-0.1512,-0.1489,-0.1512,-0.1509,-0.1572,-0.1617,-0.1703,-0.1714,-0.1759,-0.1759,-0.1758,-0.1796,-0.1805,-0.1822,-0.1822,-0.186,-0.187,-0.183,-0.1831,-0.1832,-0.1832,0,-0.1732,-0.17,-0.1665,-0.1651,-0.1647,-0.1621,-0.1616,-0.1603,-0.1584,-0.1611,-0.1627,-0.1696,-0.1731,-0.1767,-0.1809,-0.1853,-0.1813,-0.1877,-0.1842,-0.184,-0.1857,-0.1859,-0.1782,-0.1834,-0.1834,-0.1834,-0.1835,0,-0.1814,-0.1807,-0.1756,-0.1731,-0.173,-0.1708,-0.1686,-0.1658,-0.1655,-0.1679,-0.1733,-0.18,-0.1827,-0.1895,-0.1908,-0.1948,-0.1939,-0.1962,-0.1959,-0.1976,-0.2025,-0.1897,-0.1828,-0.1854,-0.1928,-0.193,-0.1931,0,-0.1903,-0.1858,-0.1876,-0.1818,-0.1798,-0.1819,-0.1785,-0.1776,-0.1793,-0.1793,-0.1858,-0.1889,-0.1952,-0.1992,-0.2,-0.2045,-0.2006,-0.2056,-0.2056,-0.2054,-0.2015,-0.1956,-0.1963,-0.185,-0.1947,-0.1945,-0.1944,0,-0.1965,-0.1953,-0.1937,-0.1922,-0.1932,-0.1933,-0.1896,-0.189,-0.187,-0.1899,-0.1904,-0.1943,-0.2001,-0.203,-0.21,-0.2099,-0.2028,-0.2142,-0.2144,-0.2052,-0.199,-0.1978,-0.1966,-0.2087,-0.2086,-0.2085,-0.1956,0,-0.1998,-0.1979,-0.1967,-0.1985,-0.1991,-0.1965,-0.1994,-0.1974,-0.2001,-0.2018,-0.2035,-0.2095,-0.2138,-0.2151,-0.2188,-0.2171,-0.2181,-0.2232,-0.2231,-0.2213,-0.2162,-0.2152,-0.2297,-0.2298,-0.23,-0.2301,0,0,-0.2053,-0.2043,-0.2102,-0.2085,-0.2083,-0.213,-0.2114,-0.2118,-0.214,-0.2133,-0.2169,-0.2233,-0.2237,-0.2256,-0.2262,-0.2275,-0.2274,-0.2253,-0.2242,-0.2235,-0.2229,-0.2178,-0.2166,-0.2303,-0.2304,-0.2304,-0.2305,0,-0.2078,-0.2106,-0.2113,-0.2113,-0.2127,-0.2158,-0.2153,-0.2189,-0.2201,-0.219,-0.2256,-0.2273,-0.2275,-0.2302,-0.2319,-0.2296,-0.2283,-0.2314,-0.2257,-0.2254,-0.2245,-0.2238,-0.2185,-0.2174,-0.2308,-0.2308,-0.2308,0,-0.2133,-0.2162,-0.2177,-0.2201,-0.2221,-0.2218,-0.228,-0.2276,-0.2265,-0.2328,-0.2312,-0.2349,-0.2388,-0.2372,-0.2363,-0.2372,-0.2298,-0.2331,-0.2326,-0.2311,-0.2309,-0.23,-0.2292,-0.2384,-0.2383,-0.2383,0,0,-0.2162,-0.2183,-0.2227,-0.2214,-0.2225,-0.2269,-0.2277,-0.2303,-0.2333,-0.2348,-0.2356,-0.2381,-0.2395,-0.2385,-0.239,-0.2352,-0.2347,-0.2334,-0.233,-0.2327,-0.231,-0.2307,-0.2299,-0.2381,-0.2381,-0.2381,0,0,-0.2178,-0.2248,-0.2267,-0.2268,-0.2279,-0.2329,-0.2322,-0.2356,-0.238,-0.2386,-0.2414,-0.2414,-0.2393,-0.2406,-0.239,-0.2374,-0.2401,-0.2402,-0.2329,-0.2325,-0.2322,-0.2299,-0.2391,0,0,0,0,0,-0.225,-0.2238,-0.2254,-0.226,-0.2307,-0.2314,-0.232,-0.237,-0.2406,-0.2396,-0.2435,-0.242,-0.2429,-0.2415,-0.2403,-0.236,-0.2363,-0.2367,-0.237,-0.227,-0.2266,-0.2262,0,0,0,0,0,0,-0.2253,-0.226,-0.2254,-0.2302,-0.2313,-0.2316,-0.2381,-0.2395,-0.2408,-0.2417,-0.2421,-0.242,-0.2432,-0.2418,-0.2408,-0.2367,-0.2394,-0.2365,-0.2367,-0.237,-0.2269,-0.2265,-0.2262,0,0,0,0,0,-0.2255,-0.2261,-0.2326,-0.2303,-0.2312,-0.2369,-0.2383,-0.2395,-0.2412,-0.2417,-0.242,-0.2447,-0.2431,-0.2423,-0.2412,-0.2372,-0.24,-0.2397,-0.2366,-0.2369,-0.237,-0.2267,0,0,0,0,0,0,-0.2257,-0.2276,-0.2329,-0.2333,-0.2317,-0.237,-0.2381,-0.2394,-0.2411,-0.2415,-0.2442,-0.2448,-0.2429,-0.2424,-0.2418,-0.2375,-0.2405,-0.2402,-0.24,-0.2368,-0.237,-0.2371,0,0,0,0,0,0,-0.2273,-0.228,-0.2331,-0.2346,-0.2353,-0.2371,-0.2381,-0.2338,-0.2407,-0.2435,-0.2441,-0.2444,-0.241,-0.2424,-0.2419,-0.2353,-0.2409,-0.2406,-0.2404,-0.2402,-0.2369,-0.2371,0,0,0,0,0,0,-0.2277,-0.2282,-0.2346,-0.2351,-0.2357,-0.2411,-0.2331,-0.2362,-0.2469,-0.2431,-0.2474,-0.2477,-0.2407,-0.2405,-0.242,-0.2356,-0.2354,-0.2409,-0.2407,-0.2405,-0.2404,0,0,0,0,0,0,0,-0.228,-0.2231,-0.2299,-0.2355,-0.236,-0.2371,-0.2373,-0.2374,-0.247,-0.2472,-0.2474,-0.2476,-0.2428,-0.2425,-0.2421,-0.2358,0,0,-0.2409,-0.2408,0,0,0,0,0,0,0,0,-0.223,-0.2231,-0.2299,-0.23,-0.23,-0.2371,-0.2373,-0.2374,-0.247,-0.2472,-0.2473,-0.2475,-0.2427,-0.2424,-0.2421,0,0,0,0,0,0,0,0,0,0,0,0,0,0,0,-0.2299,-0.23,0,-0.2371,-0.2373,-0.2374,-0.247,-0.2472,-0.2473,-0.2474,-0.2427,-0.2424,-0.2422,0,0,0,0,0,0,0,0,0,0,0,0,0,0,0,0,0,0,0,0,0,0,0,0,0,0,0,0,0,0,0,0,0,0,0,0,0,0,0,0,0,0,0,0,0,0,0,0,0,0,0,0,0,0,0,0,0,0,0,0,0,0,0,0,0,0,0,0,0]}]],[[{"header":{"parameterUnit":"kt","parameterCategory":2,"dx":1,"dy":1,"la1":30.253999710083008,"la2":30.299108505249023,"lo1":-89.0895004272461,"lo2":-89.04439544677734,"nx":28,"ny":28,"refTime":"2022-09-25T21:00:00:Z","depth":"2","parameterNumber":2,"parameterNumberName":"U-component_of_CURRENTS"},"data":[-0.0807,-0.0703,-0.0696,-0.0605,-0.0551,-0.0465,-0.0434,-0.0445,-0.0506,-0.06,-0.0694,-0.0925,-0.0967,-0.0923,-0.0891,-0.078,-0.0717,-0.0724,-0.0719,-0.0811,-0.0808,-0.0779,-0.0863,0,0,0,0,0,-0.0891,-0.0842,-0.0765,-0.0652,-0.0604,-0.0594,-0.0532,-0.0506,-0.0494,-0.0594,-0.0647,-0.0734,-0.0836,-0.0846,-0.0779,-0.0738,-0.0741,-0.0637,-0.0704,-0.0705,-0.0705,-0.0754,-0.0704,-0.0703,-0.0701,-0.07,0,0,-0.1028,-0.0951,-0.0851,-0.0766,-0.07,-0.0658,-0.0597,-0.0572,-0.0549,-0.0568,-0.0588,-0.0665,-0.0786,-0.082,-0.0757,-0.0663,-0.07,-0.0671,-0.0673,-0.0674,-0.0721,-0.071,-0.0663,-0.0662,-0.0661,-0.0661,-0.066,0,-0.1093,-0.1058,-0.0978,-0.0868,-0.0785,-0.0735,-0.0654,-0.063,-0.061,-0.06,-0.0608,-0.0642,-0.0665,-0.0722,-0.0695,-0.068,-0.0654,-0.0648,-0.0588,-0.0808,-0.0798,-0.0826,-0.0832,-0.0763,-0.0763,-0.0762,-0.0762,-0.0762,-0.1161,-0.1112,-0.1004,-0.0948,-0.0903,-0.0816,-0.0751,-0.0729,-0.0692,-0.0693,-0.0669,-0.067,-0.068,-0.0643,-0.0677,-0.0653,-0.0645,-0.0645,-0.0715,-0.066,-0.0686,-0.0697,-0.0707,-0.0758,-0.0759,-0.0759,-0.076,0,-0.1188,-0.1165,-0.1072,-0.0979,-0.0951,-0.0871,-0.0813,-0.0755,-0.0749,-0.0722,-0.0727,-0.0744,-0.0721,-0.0715,-0.0715,-0.0705,-0.0689,-0.0684,-0.0739,-0.0761,-0.0709,-0.0718,-0.0605,-0.0604,-0.0602,-0.0601,-0.06,0,-0.1238,-0.1187,-0.1128,-0.1074,-0.098,-0.0934,-0.0858,-0.0817,-0.0793,-0.0746,-0.0781,-0.0779,-0.0803,-0.0783,-0.0797,-0.0759,-0.0765,-0.0779,-0.0793,-0.0868,-0.0873,-0.088,-0.0888,-0.0816,-0.0817,-0.0817,-0.0818,0,-0.129,-0.1216,-0.1167,-0.1126,-0.1034,-0.0984,-0.0947,-0.0869,-0.0841,-0.0827,-0.0823,-0.0796,-0.0817,-0.0816,-0.0832,-0.0864,-0.0802,-0.0858,-0.083,-0.0827,-0.0877,-0.0882,-0.0819,-0.0819,-0.082,-0.082,-0.082,0,-0.1323,-0.1279,-0.1215,-0.1117,-0.1097,-0.1049,-0.0963,-0.093,-0.0866,-0.0867,-0.0854,-0.0874,-0.085,-0.0922,-0.0877,-0.0915,-0.0927,-0.0939,-0.0937,-0.0921,-0.0978,-0.0952,-0.0895,-0.0917,-0.0918,-0.092,-0.0921,0,-0.1365,-0.1296,-0.1278,-0.1202,-0.1152,-0.1129,-0.1069,-0.1015,-0.1006,-0.0966,-0.0967,-0.0951,-0.0971,-0.0996,-0.0989,-0.1012,-0.0983,-0.1032,-0.101,-0.1007,-0.1003,-0.0941,-0.1015,-0.0913,-0.0936,-0.0935,-0.0933,0,-0.1379,-0.1315,-0.1304,-0.126,-0.1224,-0.1203,-0.1158,-0.1112,-0.1071,-0.1054,-0.1024,-0.0998,-0.1017,-0.1011,-0.1043,-0.104,-0.1007,-0.1084,-0.1085,-0.1034,-0.0976,-0.0963,-0.0951,-0.107,-0.1068,-0.1067,-0.0946,0,-0.1368,-0.1332,-0.1321,-0.1271,-0.1256,-0.1241,-0.1215,-0.1192,-0.1201,-0.118,-0.1138,-0.115,-0.1127,-0.1131,-0.1148,-0.111,-0.111,-0.1157,-0.1169,-0.1139,-0.1088,-0.1078,-0.1201,-0.1201,-0.1202,-0.1202,0,0,-0.1392,-0.1363,-0.1347,-0.1315,-0.1292,-0.1318,-0.13,-0.1296,-0.1287,-0.1258,-0.1286,-0.1243,-0.1241,-0.1196,-0.1185,-0.1193,-0.1184,-0.118,-0.1156,-0.1151,-0.1147,-0.1097,-0.1087,-0.1203,-0.1203,-0.1203,-0.1203,0,-0.1391,-0.1371,-0.1345,-0.1326,-0.1315,-0.1325,-0.1329,-0.1338,-0.1339,-0.1313,-0.1319,-0.1301,-0.1272,-0.1248,-0.1242,-0.1204,-0.1202,-0.1207,-0.1159,-0.1161,-0.1155,-0.115,-0.11,-0.1091,-0.1204,-0.1204,-0.1204,0,-0.139,-0.1371,-0.135,-0.134,-0.1351,-0.1334,-0.1376,-0.1384,-0.1366,-0.1388,-0.1351,-0.1352,-0.1339,-0.1298,-0.1281,-0.1288,-0.1219,-0.1248,-0.1246,-0.1216,-0.1218,-0.1212,-0.1206,-0.128,-0.128,-0.128,0,0,-0.1389,-0.1356,-0.1348,-0.134,-0.1337,-0.1367,-0.1375,-0.1388,-0.1393,-0.1404,-0.1385,-0.1367,-0.1349,-0.1332,-0.1306,-0.1276,-0.1262,-0.1257,-0.1254,-0.1251,-0.122,-0.1221,-0.1215,-0.1281,-0.1281,-0.1281,0,0,-0.1399,-0.136,-0.1359,-0.1342,-0.1348,-0.1373,-0.1376,-0.1404,-0.1416,-0.1414,-0.1407,-0.1399,-0.1362,-0.1354,-0.1368,-0.1305,-0.132,-0.1317,-0.1307,-0.1303,-0.1299,-0.1267,-0.1361,0,0,0,0,0,-0.1371,-0.1357,-0.1355,-0.135,-0.1359,-0.1369,-0.1375,-0.1392,-0.142,-0.1431,-0.1421,-0.1417,-0.135,-0.1362,-0.1356,-0.1333,-0.1293,-0.1291,-0.1289,-0.1269,-0.1264,-0.126,0,0,0,0,0,0,-0.1369,-0.1365,-0.1355,-0.1373,-0.1374,-0.137,-0.1388,-0.1395,-0.1418,-0.1423,-0.1422,-0.1416,-0.1398,-0.1364,-0.1359,-0.1337,-0.1363,-0.1292,-0.129,-0.1289,-0.1268,-0.1264,-0.126,0,0,0,0,0,-0.1368,-0.1365,-0.1368,-0.1375,-0.1376,-0.139,-0.1389,-0.1395,-0.1434,-0.1395,-0.1395,-0.1443,-0.1399,-0.1393,-0.1361,-0.1339,-0.1366,-0.1365,-0.1291,-0.1289,-0.1288,-0.1266,0,0,0,0,0,0,-0.1367,-0.1398,-0.1369,-0.1371,-0.1369,-0.1393,-0.1396,-0.1394,-0.1406,-0.1405,-0.141,-0.1412,-0.1399,-0.1394,-0.139,-0.134,-0.1369,-0.1367,-0.1366,-0.129,-0.1289,-0.1288,0,0,0,0,0,0,-0.1399,-0.14,-0.1371,-0.1361,-0.1363,-0.1394,-0.1397,-0.1377,-0.1404,-0.1424,-0.1425,-0.141,-0.137,-0.1395,-0.1392,-0.1365,-0.1371,-0.1369,-0.1368,-0.1367,-0.1289,-0.1288,0,0,0,0,0,0,-0.14,-0.1401,-0.1362,-0.1363,-0.1365,-0.1394,-0.1376,-0.1371,-0.1437,-0.1422,-0.1436,-0.1436,-0.1368,-0.1368,-0.1393,-0.1368,-0.1366,-0.1371,-0.137,-0.1369,-0.1369,0,0,0,0,0,0,0,-0.1401,-0.1385,-0.1344,-0.1365,-0.1366,-0.1381,-0.1383,-0.1385,-0.1437,-0.1436,-0.1436,-0.1436,-0.1381,-0.1379,-0.1377,-0.1371,0,0,-0.1371,-0.1371,0,0,0,0,0,0,0,0,-0.1386,-0.1385,-0.1344,-0.1343,-0.1343,-0.1381,-0.1383,-0.1384,-0.1437,-0.1436,-0.1436,-0.1436,-0.1381,-0.1379,-0.1378,0,0,0,0,0,0,0,0,0,0,0,0,0,0,0,-0.1344,-0.1343,0,-0.1381,-0.1383,-0.1384,-0.1437,-0.1436,-0.1436,-0.1436,-0.138,-0.1379,-0.1378,0,0,0,0,0,0,0,0,0,0,0,0,0,0,0,0,0,0,0,0,0,0,0,0,0,0,0,0,0,0,0,0,0,0,0,0,0,0,0,0,0,0,0,0,0,0,0,0,0,0,0,0,0,0,0,0,0,0,0,0,0,0,0,0,0,0,0,0,0]}],[{"header":{"parameterUnit":"kt","parameterCategory":2,"dx":1,"dy":1,"la1":30.253999710083008,"la2":30.299108505249023,"lo1":-89.0895004272461,"lo2":-89.04439544677734,"nx":28,"ny":28,"refTime":"2022-09-25T21:00:00:Z","depth":"2","parameterNumber":3,"parameterNumberName":"V-component_of_CURRENTS"},"data":[-0.0878,-0.0801,-0.0766,-0.082,-0.0885,-0.0945,-0.0947,-0.0895,-0.0837,-0.078,-0.0706,-0.0403,-0.0101,0.0281,0.0536,0.0603,0.029,0.0568,-0.0112,0.0018,-0.0042,-0.0016,0.0044,0,0,0,0,0,-0.0967,-0.0897,-0.0858,-0.0861,-0.0938,-0.0994,-0.1019,-0.0992,-0.1012,-0.1005,-0.1023,-0.0579,-0.0225,-0.0096,0.0086,0.0107,0.0098,0.0116,0.0274,0.0219,0.0167,0.0232,0.073,0.0729,0.0727,0.0726,0,0,-0.1059,-0.0982,-0.0958,-0.094,-0.0982,-0.1034,-0.1025,-0.1073,-0.1099,-0.1104,-0.1149,-0.1098,-0.0742,-0.0571,-0.0501,-0.0487,-0.065,-0.0483,-0.05,-0.0527,-0.0493,-0.0437,-0.0189,-0.0194,-0.0199,-0.0204,-0.0208,0,-0.1136,-0.1135,-0.1073,-0.1081,-0.1074,-0.1086,-0.1107,-0.1088,-0.1148,-0.1206,-0.1261,-0.1288,-0.1223,-0.1004,-0.0951,-0.0938,-0.0948,-0.0823,-0.1437,-0.0617,-0.0552,-0.0552,-0.0589,-0.0338,-0.0345,-0.035,-0.0353,-0.0356,-0.1256,-0.1221,-0.1197,-0.1175,-0.1168,-0.1139,-0.1144,-0.1173,-0.1212,-0.1244,-0.1258,-0.1267,-0.1319,-0.1339,-0.1322,-0.132,-0.1459,-0.0966,-0.0986,-0.1533,-0.1534,-0.1541,-0.1548,-0.0429,-0.042,-0.0412,-0.0406,0,-0.1316,-0.1332,-0.1271,-0.1267,-0.125,-0.1191,-0.1203,-0.1215,-0.1243,-0.1278,-0.1294,-0.1364,-0.1388,-0.1442,-0.1478,-0.1528,-0.1548,-0.1535,-0.1076,-0.1022,-0.1552,-0.1558,-0.1481,-0.1479,-0.1478,-0.1477,-0.1476,0,-0.1435,-0.139,-0.1387,-0.1378,-0.1296,-0.1304,-0.1268,-0.1246,-0.1299,-0.1304,-0.1387,-0.1454,-0.1548,-0.1563,-0.1606,-0.1613,-0.1615,-0.1647,-0.164,-0.1265,-0.1232,-0.1715,-0.172,-0.1684,-0.1685,-0.1686,-0.1686,0,-0.1487,-0.146,-0.1414,-0.1429,-0.1395,-0.1358,-0.1348,-0.1347,-0.1317,-0.1382,-0.1424,-0.1514,-0.1563,-0.161,-0.1644,-0.1685,-0.1663,-0.1706,-0.1669,-0.1665,-0.1283,-0.1249,-0.1687,-0.1688,-0.1688,-0.1688,-0.1689,0,-0.1543,-0.1542,-0.1491,-0.1437,-0.1444,-0.1425,-0.1418,-0.1373,-0.139,-0.1422,-0.152,-0.159,-0.1631,-0.1707,-0.173,-0.1764,-0.1753,-0.1769,-0.1765,-0.1752,-0.1758,-0.1268,-0.113,-0.1708,-0.1709,-0.1709,-0.171,0,-0.1577,-0.1553,-0.159,-0.1534,-0.1529,-0.1568,-0.1524,-0.1489,-0.1518,-0.1526,-0.1596,-0.1635,-0.1703,-0.176,-0.1784,-0.1803,-0.1784,-0.182,-0.1789,-0.1786,-0.1771,-0.1739,-0.13,-0.1162,-0.172,-0.1719,-0.1718,0,-0.1627,-0.1646,-0.1654,-0.1631,-0.1702,-0.1664,-0.1637,-0.1596,-0.1595,-0.1619,-0.163,-0.167,-0.1745,-0.176,-0.1814,-0.1824,-0.1793,-0.1849,-0.185,-0.1798,-0.1771,-0.1752,-0.1743,-0.1841,-0.1841,-0.184,-0.1725,0,-0.1671,-0.168,-0.1681,-0.1691,-0.1706,-0.1706,-0.1681,-0.168,-0.1722,-0.1713,-0.1737,-0.179,-0.1828,-0.1829,-0.1856,-0.1846,-0.1845,-0.1872,-0.1871,-0.1863,-0.181,-0.1804,-0.1879,-0.1879,-0.1879,-0.188,0,0,-0.1718,-0.1704,-0.1754,-0.1758,-0.1772,-0.1806,-0.1784,-0.1797,-0.1787,-0.177,-0.1827,-0.1887,-0.1882,-0.1893,-0.1891,-0.1883,-0.1882,-0.1876,-0.1868,-0.1867,-0.1865,-0.1816,-0.181,-0.188,-0.188,-0.188,-0.188,0,-0.1706,-0.1784,-0.1771,-0.1785,-0.178,-0.1791,-0.1802,-0.1807,-0.1837,-0.1829,-0.1887,-0.1922,-0.1908,-0.1907,-0.1914,-0.1892,-0.1876,-0.1888,-0.187,-0.187,-0.1868,-0.1867,-0.1818,-0.1812,-0.1881,-0.1881,-0.1881,0,-0.1761,-0.1757,-0.1752,-0.1746,-0.1757,-0.1752,-0.1815,-0.1839,-0.182,-0.1897,-0.1923,-0.1959,-0.197,-0.1946,-0.1941,-0.194,-0.1877,-0.1895,-0.1894,-0.1891,-0.189,-0.1888,-0.1887,-0.1908,-0.1908,-0.1908,0,0,-0.1766,-0.1779,-0.1734,-0.1724,-0.1738,-0.177,-0.1812,-0.1842,-0.1873,-0.1936,-0.1945,-0.1968,-0.1975,-0.1972,-0.1957,-0.1924,-0.1913,-0.1898,-0.1897,-0.1896,-0.1891,-0.1891,-0.1889,-0.1908,-0.1908,-0.1908,0,0,-0.1738,-0.1706,-0.1699,-0.1726,-0.1692,-0.17,-0.178,-0.1834,-0.1937,-0.1979,-0.1997,-0.1999,-0.1999,-0.1986,-0.1993,-0.1939,-0.1946,-0.1944,-0.194,-0.1938,-0.1937,-0.1937,-0.1974,0,0,0,0,0,-0.1635,-0.168,-0.1671,-0.1666,-0.1696,-0.1664,-0.1687,-0.18,-0.1897,-0.1949,-0.2009,-0.1996,-0.1993,-0.1999,-0.199,-0.1958,-0.191,-0.191,-0.1909,-0.1897,-0.1896,-0.1894,0,0,0,0,0,0,-0.1631,-0.1617,-0.167,-0.1654,-0.1663,-0.1667,-0.1754,-0.1789,-0.1895,-0.1919,-0.1991,-0.1994,-0.1985,-0.2002,-0.1994,-0.1964,-0.1977,-0.191,-0.191,-0.1909,-0.1897,-0.1895,-0.1894,0,0,0,0,0,-0.1628,-0.1617,-0.1623,-0.1662,-0.1669,-0.1788,-0.1759,-0.1789,-0.1929,-0.1891,-0.191,-0.2013,-0.1982,-0.1979,-0.1997,-0.1968,-0.1982,-0.1979,-0.191,-0.1909,-0.1909,-0.1896,0,0,0,0,0,0,-0.1626,-0.1709,-0.1631,-0.164,-0.1681,-0.1798,-0.1814,-0.1788,-0.19,-0.1916,-0.1898,-0.1912,-0.198,-0.1978,-0.1975,-0.197,-0.1986,-0.1983,-0.1981,-0.1909,-0.1909,-0.1909,0,0,0,0,0,0,-0.1714,-0.1716,-0.1637,-0.1655,-0.1669,-0.1806,-0.1819,-0.1776,-0.1895,-0.1907,-0.192,-0.1902,-0.1915,-0.1976,-0.1975,-0.1911,-0.1989,-0.1986,-0.1985,-0.1983,-0.1909,-0.1909,0,0,0,0,0,0,-0.1718,-0.1721,-0.1655,-0.1666,-0.1679,-0.1816,-0.1769,-0.1775,-0.1987,-0.1899,-0.1996,-0.2,-0.1906,-0.1911,-0.1974,-0.191,-0.1911,-0.1989,-0.1987,-0.1986,-0.1985,0,0,0,0,0,0,0,-0.1722,-0.1656,-0.1542,-0.1675,-0.1687,-0.172,-0.1726,-0.1732,-0.1988,-0.1992,-0.1995,-0.1998,-0.2004,-0.2001,-0.1998,-0.191,0,0,-0.1989,-0.1988,0,0,0,0,0,0,0,0,-0.166,-0.1657,-0.1542,-0.1542,-0.1542,-0.1721,-0.1726,-0.1731,-0.1989,-0.1992,-0.1994,-0.1997,-0.2003,-0.2001,-0.1999,0,0,0,0,0,0,0,0,0,0,0,0,0,0,0,-0.1542,-0.1542,0,-0.1722,-0.1726,-0.173,-0.1989,-0.1992,-0.1994,-0.1996,-0.2003,-0.2001,-0.1999,0,0,0,0,0,0,0,0,0,0,0,0,0,0,0,0,0,0,0,0,0,0,0,0,0,0,0,0,0,0,0,0,0,0,0,0,0,0,0,0,0,0,0,0,0,0,0,0,0,0,0,0,0,0,0,0,0,0,0,0,0,0,0,0,0,0,0,0,0]}]],[[{"header":{"parameterUnit":"kt","parameterCategory":2,"dx":1,"dy":1,"la1":30.253999710083008,"la2":30.299108505249023,"lo1":-89.0895004272461,"lo2":-89.04439544677734,"nx":28,"ny":28,"refTime":"2022-09-25T21:00:00:Z","depth":"4","parameterNumber":2,"parameterNumberName":"U-component_of_CURRENTS"},"data":[-0.1294,-0.1391,-0.1454,-0.1288,-0.1196,-0.1211,-0.1216,-0.1257,-0.1143,-0.1209,-0.1084,-0.1298,-0.1109,-0.1147,-0.0945,-0.0954,-0.1179,-0.104,-0.1038,-0.1478,-0.1507,-0.1533,-0.1535,0,0,0,0,0,-0.1303,-0.1381,-0.1464,-0.1436,-0.1471,-0.1508,-0.156,-0.1624,-0.1689,-0.1472,-0.153,-0.1312,-0.1128,-0.1002,-0.0963,-0.1054,-0.1264,-0.1009,-0.1382,-0.1496,-0.1528,-0.152,0,0,0,0,0,0,-0.138,-0.1443,-0.1583,-0.1613,-0.1685,-0.1602,-0.1672,-0.1648,-0.1698,-0.1723,-0.1529,-0.1392,-0.1423,-0.1279,-0.1222,-0.1249,-0.1254,-0.1338,-0.1376,-0.1407,-0.137,-0.1285,-0.0925,0,0,0,0,0,-0.1344,-0.1485,-0.1614,-0.1663,-0.1769,-0.1835,-0.193,-0.1895,-0.1986,-0.2177,-0.1871,-0.1744,-0.1571,-0.1475,-0.15,-0.1455,-0.1835,-0.1703,-0.1721,-0.1817,-0.1782,-0.1794,-0.182,-0.1649,-0.1653,-0.1655,-0.1657,0,-0.1303,-0.1425,-0.165,-0.1695,-0.1799,-0.1932,-0.2029,-0.2183,-0.2227,-0.2195,-0.2151,-0.2038,-0.1975,-0.1748,-0.1815,-0.1781,-0.1772,-0.1785,-0.1886,-0.1835,-0.1834,-0.1854,-0.1871,-0.1682,-0.168,-0.1678,-0.1676,0,-0.1294,-0.1424,-0.1611,-0.1828,-0.188,-0.1981,-0.2131,-0.2249,-0.2348,-0.2365,-0.234,-0.2311,-0.2148,-0.227,-0.2213,-0.2195,-0.211,-0.2017,-0.2283,-0.2286,-0.1913,-0.192,-0.1724,-0.1715,-0.1707,-0.17,-0.1695,0,-0.1291,-0.1431,-0.16,-0.1685,-0.1859,-0.1963,-0.2151,-0.2247,-0.2387,-0.2427,-0.2474,-0.2406,-0.2507,-0.2479,-0.2436,-0.2267,-0.2381,-0.2189,-0.2166,-0.2474,-0.2479,-0.2331,-0.2321,-0.2435,-0.2436,-0.2437,-0.2438,0,-0.1271,-0.1414,-0.1567,-0.1612,-0.1801,-0.1941,-0.2021,-0.2223,-0.2313,-0.24,-0.246,-0.2552,-0.2539,-0.2512,-0.2456,-0.2488,-0.2433,-0.2498,-0.2242,-0.2226,-0.2333,-0.232,-0.2439,-0.2439,-0.2439,-0.244,-0.244,0,-0.1256,-0.1346,-0.149,-0.1671,-0.1711,-0.179,-0.2029,-0.2101,-0.2294,-0.2371,-0.2491,-0.2505,-0.26,-0.2547,-0.2571,-0.2584,-0.2517,-0.2535,-0.2532,-0.2167,-0.216,-0.2315,-0.2476,-0.2477,-0.2478,-0.2479,-0.248,0,-0.1243,-0.1353,-0.1396,-0.1512,-0.1577,-0.1674,-0.1784,-0.1927,-0.2042,-0.217,-0.233,-0.2424,-0.2433,-0.25,-0.2567,-0.257,-0.2593,-0.2637,-0.2411,-0.2401,-0.219,-0.2273,-0.2622,-0.2493,-0.2492,-0.249,-0.249,0,-0.1204,-0.1314,-0.1323,-0.1396,-0.1468,-0.1508,-0.1622,-0.1772,-0.1892,-0.2,-0.2148,-0.236,-0.2376,-0.2423,-0.2497,-0.2561,-0.261,-0.2458,-0.2451,-0.2405,-0.2544,-0.2317,-0.2287,-0.2624,-0.2624,-0.2623,-0.2499,0,-0.1219,-0.1283,-0.1304,-0.136,-0.1399,-0.1462,-0.1503,-0.1594,-0.1672,-0.1742,-0.1951,-0.2027,-0.2138,-0.2279,-0.2272,-0.2426,-0.2334,-0.2323,-0.2232,-0.2362,-0.229,-0.2285,-0.2268,-0.2262,-0.2258,-0.2254,0,0,-0.1194,-0.1243,-0.1256,-0.1292,-0.1339,-0.136,-0.1413,-0.1445,-0.1508,-0.1604,-0.1585,-0.1808,-0.1869,-0.2092,-0.2162,-0.2194,-0.2117,-0.2175,-0.231,-0.2318,-0.2324,-0.2263,-0.2263,-0.2246,-0.2244,-0.2242,-0.2241,0,-0.1177,-0.121,-0.1242,-0.1266,-0.1323,-0.1341,-0.136,-0.1399,-0.1445,-0.1531,-0.1559,-0.17,-0.1783,-0.1888,-0.1946,-0.2119,-0.2032,-0.2172,-0.2273,-0.2274,-0.2289,-0.23,-0.2245,-0.2248,-0.2229,-0.223,-0.223,0,-0.1154,-0.1186,-0.12,-0.1244,-0.1262,-0.1291,-0.1286,-0.134,-0.1387,-0.1373,-0.1451,-0.1516,-0.156,-0.1712,-0.1769,-0.1733,-0.192,-0.1919,-0.1941,-0.1831,-0.1818,-0.1837,-0.1853,-0.164,-0.1639,-0.1639,0,0,-0.1151,-0.1185,-0.1205,-0.1238,-0.1251,-0.1271,-0.1294,-0.1322,-0.1348,-0.1367,-0.1395,-0.1445,-0.1524,-0.1586,-0.161,-0.1739,-0.1629,-0.1858,-0.1886,-0.191,-0.1816,-0.1809,-0.1827,-0.1635,-0.1635,-0.1635,0,0,-0.1137,-0.1168,-0.1178,-0.1216,-0.1241,-0.1254,-0.1286,-0.1298,-0.1337,-0.136,-0.1365,-0.1375,-0.1491,-0.1471,-0.1423,-0.1669,-0.1538,-0.1547,-0.1749,-0.1782,-0.1809,-0.1694,-0.1417,0,0,0,0,0,-0.113,-0.1161,-0.117,-0.1179,-0.122,-0.1246,-0.1253,-0.1283,-0.129,-0.1313,-0.1342,-0.1346,-0.1461,-0.1418,-0.1427,-0.1605,-0.1592,-0.1599,-0.1607,-0.1889,-0.1924,-0.1954,0,0,0,0,0,0,-0.1134,-0.1142,-0.117,-0.1181,-0.1192,-0.1244,-0.1241,-0.1249,-0.1289,-0.1293,-0.1338,-0.1346,-0.1355,-0.1414,-0.1422,-0.1594,-0.1414,-0.1595,-0.1601,-0.1607,-0.1901,-0.193,-0.1955,0,0,0,0,0,-0.1137,-0.1143,-0.1202,-0.1181,-0.1191,-0.1234,-0.1241,-0.1248,-0.1281,-0.131,-0.1319,-0.1308,-0.1354,-0.1364,-0.1419,-0.1593,-0.1409,-0.1412,-0.1599,-0.1604,-0.1609,-0.1915,0,0,0,0,0,0,-0.1139,-0.1144,-0.1205,-0.1209,-0.1186,-0.1233,-0.124,-0.1246,-0.1297,-0.1306,-0.1278,-0.128,-0.1353,-0.1361,-0.1368,-0.1597,-0.1404,-0.1407,-0.1409,-0.1603,-0.1607,-0.161,0,0,0,0,0,0,-0.1141,-0.1147,-0.1207,-0.121,-0.1215,-0.1232,-0.1238,-0.1268,-0.1297,-0.1261,-0.1264,-0.1278,-0.1353,-0.1359,-0.1365,-0.1408,-0.1401,-0.1404,-0.1406,-0.1407,-0.1606,-0.1609,0,0,0,0,0,0,-0.1144,-0.1149,-0.1209,-0.1213,-0.1217,-0.1266,-0.1259,-0.1305,-0.1289,-0.1258,-0.129,-0.1291,-0.1351,-0.1357,-0.1362,-0.1403,-0.1407,-0.1401,-0.1403,-0.1404,-0.1405,0,0,0,0,0,0,0,-0.1147,-0.1103,-0.1183,-0.1215,-0.1218,-0.1252,-0.1253,-0.1253,-0.1289,-0.129,-0.129,-0.1291,-0.1384,-0.1388,-0.1391,-0.1398,0,0,-0.1401,-0.1402,0,0,0,0,0,0,0,0,-0.1102,-0.1103,-0.1183,-0.1185,-0.1186,-0.1252,-0.1253,-0.1253,-0.1289,-0.1289,-0.129,-0.129,-0.1385,-0.1388,-0.139,0,0,0,0,0,0,0,0,0,0,0,0,0,0,0,-0.1184,-0.1185,0,-0.1252,-0.1253,-0.1253,-0.1289,-0.1289,-0.129,-0.129,-0.1386,-0.1388,-0.139,0,0,0,0,0,0,0,0,0,0,0,0,0,0,0,0,0,0,0,0,0,0,0,0,0,0,0,0,0,0,0,0,0,0,0,0,0,0,0,0,0,0,0,0,0,0,0,0,0,0,0,0,0,0,0,0,0,0,0,0,0,0,0,0,0,0,0,0,0]}],[{"header":{"parameterUnit":"kt","parameterCategory":2,"dx":1,"dy":1,"la1":30.253999710083008,"la2":30.299108505249023,"lo1":-89.0895004272461,"lo2":-89.04439544677734,"nx":28,"ny":28,"refTime":"2022-09-25T21:00:00:Z","depth":"4","parameterNumber":3,"parameterNumberName":"V-component_of_CURRENTS"},"data":[-0.0095,-0.0155,-0.0204,-0.036,-0.0384,-0.0568,-0.0611,-0.0642,-0.068,-0.0597,-0.0531,-0.0417,-0.0275,-0.0347,-0.0079,-0.0041,0.0407,0.019,0.0194,0.0964,0.0998,0.1028,0.0856,0,0,0,0,0,-0.0042,-0.0061,-0.0176,-0.0236,-0.0338,-0.0353,-0.0517,-0.0571,-0.055,-0.0602,-0.0527,-0.0502,-0.0292,-0.0277,-0.0107,-0.0109,0.0443,0.0094,0.0749,0.0985,0.1022,0.0842,0,0,0,0,0,0,0.0011,-0.0032,-0.0035,-0.0049,-0.0149,-0.0297,-0.0338,-0.0464,-0.0512,-0.0446,-0.0532,-0.0399,-0.0292,-0.0108,0.0094,0.0323,0.043,0.0674,0.0725,0.0763,0.0568,0.0324,0.0113,0,0,0,0,0,0.0082,0.0167,0.0089,0.006,0.0018,-0.0144,-0.0223,-0.0252,-0.0295,-0.025,-0.0321,-0.0202,-0.0153,0.0109,0.0346,0.0626,0.1158,0.1105,0.113,0.125,0.1115,0.115,0.116,0.1163,0.1168,0.1171,0.1173,0,0.0212,0.02,0.0169,0.0126,0.0127,0.0085,0.0015,0.0017,-0.0086,-0.009,-0.0155,-0.0038,0.0031,0.0319,0.0618,0.0989,0.1038,0.1198,0.1324,0.1174,0.1201,0.1201,0.12,0.1203,0.1201,0.1198,0.1196,0,0.0277,0.0259,0.0182,0.0121,0.0116,0.0099,0.0054,-0.0024,0.0067,0.0025,0.009,0.0181,0.0347,0.0655,0.1047,0.1198,0.1408,0.1393,0.1548,0.1587,0.1262,0.1248,0.1252,0.1241,0.1232,0.1224,0.1218,0,0.0309,0.0253,0.0217,0.0175,0.0108,0.0097,0.0064,0.0085,0.0106,0.0063,0.026,0.0247,0.0718,0.0887,0.1167,0.1322,0.1513,0.1445,0.1469,0.1737,0.1723,0.1721,0.1704,0.1861,0.1861,0.186,0.1859,0,0.0399,0.0275,0.0214,0.0178,0.009,0.0114,0.0099,0.0118,0.0094,0.0213,0.0247,0.0485,0.0662,0.0939,0.1231,0.1294,0.1554,0.1673,0.1492,0.1469,0.171,0.1694,0.1858,0.1858,0.1858,0.1858,0.1858,0,0.0437,0.0367,0.0271,0.0192,0.0162,0.0143,0.0115,0.0086,0.0149,0.0211,0.0365,0.0475,0.0735,0.085,0.1219,0.1185,0.1361,0.1508,0.1517,0.1174,0.1186,0.1509,0.1593,0.1591,0.1589,0.1587,0.1585,0,0.0526,0.0413,0.0415,0.0308,0.0233,0.027,0.0223,0.0245,0.0286,0.0313,0.0507,0.0585,0.074,0.0869,0.1038,0.1248,0.1367,0.1283,0.1486,0.1488,0.1224,0.1231,0.1462,0.1556,0.156,0.1562,0.1564,0,0.0606,0.0547,0.0545,0.0505,0.0473,0.0438,0.0399,0.0391,0.0381,0.0482,0.051,0.0661,0.0802,0.0836,0.0974,0.113,0.1319,0.1226,0.1232,0.1291,0.1566,0.1236,0.1221,0.1445,0.1448,0.1451,0.1544,0,0.0652,0.064,0.0609,0.0562,0.0541,0.0506,0.0498,0.0506,0.056,0.0596,0.0672,0.0774,0.0855,0.0921,0.0982,0.1119,0.1122,0.1167,0.1211,0.1247,0.1272,0.1289,0.1074,0.1073,0.1072,0.107,0,0,0.075,0.0723,0.075,0.0699,0.068,0.0734,0.0673,0.0671,0.0692,0.0718,0.0765,0.0844,0.0902,0.0971,0.1014,0.1011,0.107,0.1063,0.1197,0.1211,0.1224,0.1253,0.127,0.1068,0.1068,0.1067,0.1067,0,0.0763,0.0796,0.0761,0.0747,0.0758,0.0756,0.0756,0.0766,0.079,0.0776,0.0837,0.0921,0.0912,0.0981,0.1006,0.0995,0.1074,0.1018,0.1054,0.1184,0.1199,0.1213,0.1245,0.1261,0.1064,0.1064,0.1064,0,0.0801,0.0821,0.0819,0.0826,0.0831,0.0777,0.0857,0.0858,0.0834,0.0908,0.0881,0.094,0.0959,0.0986,0.0996,0.1016,0.1094,0.1044,0.1048,0.1006,0.1138,0.1154,0.1168,0.0997,0.0997,0.0997,0,0,0.081,0.0812,0.0821,0.083,0.0816,0.0847,0.0849,0.0886,0.0896,0.0909,0.0933,0.0957,0.097,0.1003,0.0984,0.1004,0.1026,0.1042,0.1045,0.1048,0.1009,0.1139,0.1153,0.0999,0.0999,0.0999,0,0,0.0816,0.083,0.0868,0.086,0.087,0.0881,0.0871,0.0907,0.0919,0.0942,0.0979,0.0987,0.0995,0.0997,0.1009,0.1053,0.103,0.1027,0.1099,0.1103,0.1105,0.1068,0.1073,0,0,0,0,0,0.0841,0.0821,0.0855,0.0859,0.088,0.0862,0.0863,0.091,0.0954,0.0947,0.0973,0.1017,0.1016,0.1027,0.1026,0.1089,0.1015,0.1012,0.101,0.11,0.1104,0.1107,0,0,0,0,0,0,0.0843,0.0848,0.0855,0.0866,0.0871,0.0863,0.0926,0.0937,0.0957,0.0969,0.1007,0.1017,0.1042,0.1031,0.1029,0.109,0.1073,0.1014,0.1012,0.1009,0.1101,0.1104,0.1107,0,0,0,0,0,0.0845,0.0848,0.0879,0.0866,0.0871,0.092,0.0929,0.0939,0.0961,0.0991,0.1003,0.1002,0.1039,0.1042,0.103,0.1091,0.1074,0.1074,0.1013,0.1011,0.1009,0.1103,0,0,0,0,0,0,0.0846,0.0847,0.088,0.0882,0.0899,0.0923,0.0931,0.094,0.0984,0.0994,0.0985,0.0993,0.1035,0.1039,0.1041,0.1092,0.1075,0.1075,0.1074,0.1011,0.101,0.1008,0,0,0,0,0,0,0.0845,0.0848,0.0881,0.092,0.0926,0.0925,0.0932,0.0914,0.0984,0.0976,0.0984,0.0989,0.1043,0.1036,0.1038,0.1005,0.1076,0.1075,0.1075,0.1075,0.101,0.1009,0,0,0,0,0,0,0.0847,0.0849,0.0919,0.0924,0.093,0.0953,0.0909,0.0935,0.1,0.0973,0.101,0.1014,0.1039,0.1042,0.1036,0.1001,0.1004,0.1076,0.1076,0.1075,0.1075,0,0,0,0,0,0,0,0.0848,0.0828,0.0872,0.0928,0.0934,0.0899,0.0899,0.0899,0.1001,0.1005,0.1009,0.1012,0.108,0.1079,0.1078,0.0998,0,0,0.1076,0.1076,0,0,0,0,0,0,0,0,0.0827,0.0828,0.0872,0.0872,0.0873,0.0899,0.0899,0.0899,0.1002,0.1005,0.1008,0.1011,0.108,0.1079,0.1078,0,0,0,0,0,0,0,0,0,0,0,0,0,0,0,0.0872,0.0872,0,0.0899,0.0899,0.0899,0.1002,0.1005,0.1007,0.1009,0.1079,0.1079,0.1079,0,0,0,0,0,0,0,0,0,0,0,0,0,0,0,0,0,0,0,0,0,0,0,0,0,0,0,0,0,0,0,0,0,0,0,0,0,0,0,0,0,0,0,0,0,0,0,0,0,0,0,0,0,0,0,0,0,0,0,0,0,0,0,0,0,0,0,0,0]}]]]